| time (UTC) | temp F | wind direction | speed MPH | gust MPH | rain 1hr in | rain 24hr in | rain mn in | humidity % | barometer mb |
| 20260504183937 | 67 | 289 | 2.0 | 2.0 | 0.00 | 0.00 | 0.00 | 66 | 1011.2 |
| 20260504183434 | 66 | 294 | 3.0 | 3.0 | 0.00 | 0.00 | 0.00 | 67 | 1011.7 |
| 20260504182933 | 66 | 291 | 5.0 | 7.0 | 0.00 | 0.00 | 0.00 | 66 | 1011.4 |
| 20260504182429 | 66 | 292 | 3.0 | 3.0 | 0.00 | 0.00 | 0.00 | 69 | 1011.8 |
| 20260504181926 | 66 | 287 | 1.0 | 2.0 | 0.00 | 0.00 | 0.00 | 65 | 1011.3 |
| 20260504181423 | 67 | 287 | 4.0 | 5.0 | 0.00 | 0.00 | 0.00 | 61 | 1012.0 |
| 20260504180922 | 67 | 287 | 3.0 | 3.0 | 0.00 | 0.00 | 0.00 | 61 | 1012.8 |
| 20260504180420 | 68 | 287 | 6.0 | 8.0 | 0.00 | 0.00 | 0.00 | 58 | 1012.8 |
| 20260504175918 | 68 | 287 | 4.0 | 5.0 | 0.00 | 0.00 | 0.00 | 58 | 1012.7 |
| 20260504175415 | 68 | 286 | 4.0 | 7.0 | 0.00 | 0.00 | 0.00 | 59 | 1012.4 |
| 20260504174913 | 69 | 286 | 5.0 | 7.0 | 0.00 | 0.00 | 0.00 | 57 | 1012.4 |
| 20260504174410 | 70 | 351 | 3.0 | 5.0 | 0.00 | 0.00 | 0.00 | 57 | 1011.9 |
| 20260504173907 | 71 | 292 | 2.0 | 2.0 | 0.00 | 0.00 | 0.00 | 58 | 1012.1 |
| 20260504173403 | 71 | 287 | 7.0 | 9.0 | 0.00 | 0.00 | 0.00 | 55 | 1011.8 |
| 20260504172901 | 70 | 301 | 6.0 | 8.0 | 0.00 | 0.00 | 0.00 | 57 | 1011.5 |
| 20260504172357 | 70 | 286 | 1.0 | 3.0 | 0.00 | 0.00 | 0.00 | 59 | 1011.7 |
| 20260504171853 | 69 | 304 | 3.0 | 3.0 | 0.00 | 0.00 | 0.00 | 57 | 1011.8 |
| 20260504171351 | 70 | 286 | 4.0 | 6.0 | 0.00 | 0.00 | 0.00 | 59 | 1011.7 |
| 20260504170848 | 69 | 293 | 5.0 | 8.0 | 0.00 | 0.00 | 0.00 | 59 | 1011.8 |
| 20260504170344 | 68 | 7 | 6.0 | 7.0 | 0.00 | 0.00 | 0.00 | 60 | 1012.0 |
| 20260504160303 | 66 | 329 | 2.0 | 5.0 | 0.00 | 0.00 | 0.00 | 64 | 1012.6 |
| 20260504150728 | 62 | 287 | 4.0 | 7.0 | 0.00 | 0.00 | 0.00 | 71 | 1013.5 |
| 20260504150225 | 61 | 287 | 0.0 | 1.0 | 0.00 | 0.00 | 0.00 | 72 | 1013.7 |
| 20260504141154 | 58 | 331 | 5.0 | 7.0 | 0.00 | 0.00 | 0.00 | 75 | 1014.0 |
| 20260504140651 | 58 | 287 | 6.0 | 7.0 | 0.00 | 0.00 | 0.00 | 76 | 1014.0 |
| 20260504140146 | 58 | 300 | 5.0 | 7.0 | 0.00 | 0.00 | 0.00 | 76 | 1014.2 |
| 20260504130614 | 55 | 287 | 7.0 | 10.0 | 0.00 | 0.00 | 0.00 | 76 | 1014.4 |
| 20260504130111 | 55 | 290 | 5.0 | 8.0 | 0.00 | 0.00 | 0.00 | 75 | 1014.5 |
| 20260504110503 | 51 | 301 | 1.0 | 2.0 | 0.00 | 0.00 | 0.00 | 71 | 1014.0 |
| 20260504100419 | 49 | 41 | 0.0 | 1.0 | 0.00 | 0.00 | 0.00 | 73 | 1013.8 |
| 20260504081812 | 47 | 38 | 0.0 | 0.0 | 0.00 | 0.00 | 0.00 | 79 | 1014.5 |
| 20260504081309 | 46 | 38 | 0.0 | 0.0 | 0.00 | 0.00 | 0.00 | 80 | 1014.1 |
| 20260504080805 | 46 | 38 | 0.0 | 0.0 | 0.00 | 0.00 | 0.00 | 80 | 1014.2 |
| 20260504080301 | 46 | 38 | 0.0 | 0.0 | 0.00 | 0.00 | 0.00 | 80 | 1014.2 |
| 20260504070229 | 48 | 38 | 0.0 | 0.0 | 0.00 | 0.00 | 0.00 | 77 | 1014.4 |
| 20260504060149 | 52 | 343 | 0.0 | 1.0 | 0.00 | 0.00 | 0.00 | 63 | 1015.2 |
| 20260504050618 | 55 | 309 | 1.0 | 1.0 | 0.00 | 0.00 | 0.00 | 55 | 1015.8 |
| 20260504050115 | 55 | 302 | 1.0 | 1.0 | 0.00 | 0.00 | 0.00 | 57 | 1015.8 |
| 20260504045612 | 55 | 339 | 0.0 | 0.0 | 0.00 | 0.00 | 0.00 | 59 | 1015.8 |
| 20260504045107 | 55 | 288 | 2.0 | 3.0 | 0.00 | 0.00 | 0.00 | 58 | 1015.1 |
| 20260504044605 | 55 | 299 | 4.0 | 5.0 | 0.00 | 0.00 | 0.00 | 59 | 1015.2 |
| 20260504044101 | 54 | 287 | 4.0 | 5.0 | 0.00 | 0.00 | 0.00 | 60 | 1015.4 |
| 20260504043559 | 53 | 290 | 4.0 | 6.0 | 0.00 | 0.00 | 0.00 | 62 | 1015.3 |
| 20260504043055 | 52 | 312 | 1.0 | 1.0 | 0.00 | 0.00 | 0.00 | 74 | 1015.7 |
| 20260504042552 | 52 | 311 | 1.0 | 1.0 | 0.00 | 0.00 | 0.00 | 78 | 1016.0 |
| 20260504042049 | 52 | 357 | 0.0 | 0.0 | 0.00 | 0.00 | 0.00 | 76 | 1016.0 |
| 20260504041545 | 52 | 348 | 0.0 | 0.0 | 0.00 | 0.00 | 0.00 | 74 | 1016.1 |
| 20260504041041 | 52 | 40 | 0.0 | 0.0 | 0.00 | 0.00 | 0.00 | 72 | 1015.8 |
| 20260504040539 | 52 | 30 | 0.0 | 0.0 | 0.00 | 0.00 | 0.00 | 72 | 1016.0 |
| 20260504040035 | 52 | 334 | 0.0 | 0.0 | 0.00 | 0.00 | 0.00 | 74 | 1016.6 |
| 20260504035532 | 52 | 333 | 0.0 | 1.0 | 0.00 | 0.00 | 0.00 | 74 | 1016.3 |
| 20260504035029 | 52 | 34 | 0.0 | 0.0 | 0.00 | 0.00 | 0.00 | 73 | 1016.1 |
| 20260504034527 | 52 | 32 | 0.0 | 0.0 | 0.00 | 0.00 | 0.00 | 72 | 1016.1 |
| 20260504034023 | 53 | 43 | 1.0 | 1.0 | 0.00 | 0.00 | 0.00 | 73 | 1016.2 |
| 20260504033521 | 53 | 348 | 0.0 | 0.0 | 0.00 | 0.00 | 0.00 | 71 | 1016.3 |
| 20260504033018 | 52 | 348 | 0.0 | 0.0 | 0.00 | 0.00 | 0.00 | 69 | 1016.2 |
| 20260504032515 | 52 | 349 | 0.0 | 0.0 | 0.00 | 0.00 | 0.00 | 70 | 1015.9 |
| 20260504032012 | 52 | 349 | 0.0 | 0.0 | 0.00 | 0.00 | 0.00 | 69 | 1016.0 |
| 20260504031509 | 52 | 349 | 0.0 | 0.0 | 0.00 | 0.00 | 0.00 | 71 | 1016.2 |
| 20260504031005 | 53 | 33 | 1.0 | 1.0 | 0.00 | 0.00 | 0.00 | 69 | 1016.1 |
| 20260504030503 | 53 | 339 | 0.0 | 0.0 | 0.00 | 0.00 | 0.00 | 70 | 1016.0 |
| 20260504025958 | 53 | 24 | 0.0 | 0.0 | 0.00 | 0.00 | 0.00 | 67 | 1016.0 |
| 20260504025456 | 53 | 30 | 0.0 | 0.0 | 0.00 | 0.00 | 0.00 | 66 | 1016.0 |
| 20260504024952 | 53 | 29 | 0.0 | 0.0 | 0.00 | 0.00 | 0.00 | 66 | 1016.1 |
| 20260504024449 | 53 | 357 | 0.0 | 0.0 | 0.00 | 0.00 | 0.00 | 66 | 1016.2 |
| 20260504023946 | 54 | 326 | 1.0 | 1.0 | 0.00 | 0.00 | 0.00 | 64 | 1016.4 |
| 20260504023443 | 54 | 351 | 0.0 | 0.0 | 0.00 | 0.00 | 0.00 | 63 | 1016.3 |
| 20260504022938 | 54 | 354 | 0.0 | 0.0 | 0.00 | 0.00 | 0.00 | 64 | 1016.2 |
| 20260504022435 | 54 | 354 | 0.0 | 0.0 | 0.00 | 0.00 | 0.00 | 63 | 1016.0 |
| 20260504021932 | 54 | 344 | 0.0 | 0.0 | 0.00 | 0.00 | 0.00 | 62 | 1016.1 |
| 20260504021429 | 54 | 33 | 0.0 | 0.0 | 0.00 | 0.00 | 0.00 | 63 | 1015.8 |
| 20260504020926 | 54 | 354 | 0.0 | 0.0 | 0.00 | 0.00 | 0.00 | 63 | 1016.1 |
| 20260504020423 | 54 | 349 | 0.0 | 0.0 | 0.00 | 0.00 | 0.00 | 62 | 1016.1 |
| 20260504015920 | 54 | 28 | 0.0 | 0.0 | 0.00 | 0.00 | 0.00 | 62 | 1016.2 |
| 20260504015415 | 55 | 21 | 0.0 | 0.0 | 0.00 | 0.00 | 0.00 | 61 | 1015.9 |
| 20260504014912 | 55 | 4 | 0.0 | 0.0 | 0.00 | 0.00 | 0.00 | 60 | 1015.8 |
| 20260504014408 | 55 | 38 | 0.0 | 0.0 | 0.00 | 0.00 | 0.00 | 61 | 1015.8 |
| 20260504013905 | 55 | 4 | 0.0 | 0.0 | 0.00 | 0.00 | 0.00 | 59 | 1015.5 |
| 20260504013403 | 55 | 351 | 0.0 | 0.0 | 0.00 | 0.00 | 0.00 | 56 | 1015.6 |
| 20260504012859 | 55 | 336 | 0.0 | 0.0 | 0.00 | 0.00 | 0.00 | 57 | 1015.4 |
| 20260504012357 | 56 | 344 | 1.0 | 1.0 | 0.00 | 0.00 | 0.00 | 60 | 1015.2 |
| 20260504011854 | 56 | 14 | 0.0 | 0.0 | 0.00 | 0.00 | 0.00 | 59 | 1015.2 |
| 20260504011351 | 56 | 42 | 0.0 | 0.0 | 0.00 | 0.00 | 0.00 | 57 | 1015.0 |
| 20260504010846 | 56 | 42 | 0.0 | 0.0 | 0.00 | 0.00 | 0.00 | 55 | 1015.4 |
| 20260504010342 | 56 | 350 | 1.0 | 1.0 | 0.00 | 0.00 | 0.00 | 53 | 1015.4 |
| 20260504005839 | 56 | 29 | 0.0 | 0.0 | 0.00 | 0.00 | 0.00 | 54 | 1015.3 |
| 20260504005336 | 57 | 350 | 0.0 | 1.0 | 0.00 | 0.00 | 0.00 | 52 | 1015.6 |
| 20260504004834 | 57 | 351 | 0.0 | 1.0 | 0.00 | 0.00 | 0.00 | 54 | 1015.4 |
| 20260504004331 | 57 | 352 | 0.0 | 0.0 | 0.00 | 0.00 | 0.00 | 52 | 1015.6 |
| 20260504003827 | 57 | 352 | 0.0 | 0.0 | 0.00 | 0.00 | 0.00 | 47 | 1015.6 |
| 20260504003324 | 57 | 352 | 0.0 | 0.0 | 0.00 | 0.00 | 0.00 | 49 | 1015.5 |
| 20260504002821 | 58 | 352 | 0.0 | 0.0 | 0.00 | 0.00 | 0.00 | 46 | 1015.7 |
| 20260504002318 | 58 | 353 | 0.0 | 0.0 | 0.00 | 0.00 | 0.00 | 44 | 1015.7 |
| 20260504001816 | 59 | 353 | 0.0 | 0.0 | 0.00 | 0.00 | 0.00 | 45 | 1015.6 |
| 20260504001313 | 59 | 45 | 0.0 | 0.0 | 0.00 | 0.00 | 0.00 | 41 | 1015.4 |
| 20260504000810 | 59 | 351 | 0.0 | 0.0 | 0.00 | 0.00 | 0.00 | 39 | 1015.5 |
| 20260504000307 | 60 | 22 | 0.0 | 0.0 | 0.00 | 0.00 | 0.00 | 41 | 1015.6 |
| 20260503235804 | 60 | 353 | 0.0 | 0.0 | 0.00 | 0.00 | 0.00 | 38 | 1015.4 |
| 20260503235301 | 60 | 333 | 0.0 | 0.0 | 0.00 | 0.00 | 0.00 | 37 | 1015.7 |
| 20260503234759 | 60 | 51 | 0.0 | 1.0 | 0.00 | 0.00 | 0.00 | 38 | 1015.7 |
| 20260503234257 | 60 | 333 | 0.0 | 0.0 | 0.00 | 0.00 | 0.00 | 38 | 1015.8 |
| 20260503233754 | 61 | 287 | 1.0 | 2.0 | 0.00 | 0.00 | 0.00 | 36 | 1015.7 |
| 20260503233249 | 61 | 287 | 2.0 | 3.0 | 0.00 | 0.00 | 0.00 | 35 | 1015.7 |
| 20260503232746 | 61 | 291 | 2.0 | 2.0 | 0.00 | 0.00 | 0.00 | 36 | 1015.5 |
| 20260503232244 | 62 | 287 | 3.0 | 5.0 | 0.00 | 0.00 | 0.00 | 36 | 1015.7 |
| 20260503231742 | 62 | 296 | 2.0 | 2.0 | 0.00 | 0.00 | 0.00 | 35 | 1015.6 |
| 20260503231238 | 62 | 299 | 1.0 | 1.0 | 0.00 | 0.00 | 0.00 | 35 | 1015.7 |
| 20260503230734 | 62 | 293 | 1.0 | 1.0 | 0.00 | 0.00 | 0.00 | 35 | 1015.6 |
| 20260503230232 | 63 | 295 | 2.0 | 2.0 | 0.00 | 0.00 | 0.00 | 33 | 1015.7 |
| 20260503225729 | 62 | 287 | 2.0 | 2.0 | 0.00 | 0.00 | 0.00 | 36 | 1015.9 |
| 20260503225229 | 62 | 287 | 2.0 | 5.0 | 0.00 | 0.00 | 0.00 | 34 | 1016.0 |
| 20260503224726 | 62 | 303 | 5.0 | 6.0 | 0.00 | 0.00 | 0.00 | 34 | 1016.1 |
| 20260503224224 | 62 | 287 | 3.0 | 3.0 | 0.00 | 0.00 | 0.00 | 34 | 1016.2 |
| 20260503223721 | 62 | 47 | 1.0 | 1.0 | 0.00 | 0.00 | 0.00 | 37 | 1016.3 |
| 20260503223219 | 62 | 287 | 4.0 | 5.0 | 0.00 | 0.00 | 0.00 | 35 | 1016.5 |
| 20260503222715 | 63 | 352 | 0.0 | 1.0 | 0.00 | 0.00 | 0.00 | 37 | 1016.1 |
| 20260503222213 | 62 | 310 | 1.0 | 2.0 | 0.00 | 0.00 | 0.00 | 36 | 1016.5 |
| 20260503221711 | 62 | 288 | 6.0 | 7.0 | 0.00 | 0.00 | 0.00 | 33 | 1016.2 |
| 20260503221209 | 64 | 291 | 5.0 | 7.0 | 0.00 | 0.00 | 0.00 | 33 | 1016.3 |
| 20260503220705 | 63 | 0 | 4.0 | 6.0 | 0.00 | 0.00 | 0.00 | 33 | 1016.5 |
| 20260503220202 | 63 | 287 | 7.0 | 9.0 | 0.00 | 0.00 | 0.00 | 34 | 1016.4 |
| 20260503215659 | 63 | 4 | 7.0 | 9.0 | 0.00 | 0.00 | 0.00 | 34 | 1016.5 |
| 20260503215155 | 64 | 9 | 4.0 | 5.0 | 0.00 | 0.00 | 0.00 | 36 | 1016.4 |
| 20260503214654 | 63 | 318 | 1.0 | 1.0 | 0.00 | 0.00 | 0.00 | 33 | 1016.2 |
| 20260503214149 | 64 | 300 | 2.0 | 2.0 | 0.00 | 0.00 | 0.00 | 35 | 1016.4 |
| 20260503213644 | 64 | 319 | 3.0 | 3.0 | 0.00 | 0.00 | 0.00 | 33 | 1016.2 |
| 20260503213140 | 64 | 287 | 3.0 | 3.0 | 0.00 | 0.00 | 0.00 | 38 | 1016.1 |
| 20260503212637 | 64 | 34 | 2.0 | 3.0 | 0.00 | 0.00 | 0.00 | 33 | 1016.3 |
| 20260503212135 | 64 | 318 | 3.0 | 3.0 | 0.00 | 0.00 | 0.00 | 36 | 1016.5 |
| 20260503211632 | 65 | 355 | 2.0 | 2.0 | 0.00 | 0.00 | 0.00 | 36 | 1016.3 |
| 20260503211127 | 65 | 286 | 4.0 | 5.0 | 0.00 | 0.00 | 0.00 | 34 | 1016.6 |
| 20260503210624 | 64 | 355 | 3.0 | 5.0 | 0.00 | 0.00 | 0.00 | 36 | 1016.3 |
| 20260503210121 | 65 | 286 | 2.0 | 3.0 | 0.00 | 0.00 | 0.00 | 37 | 1016.6 |
| 20260503205616 | 65 | 295 | 4.0 | 6.0 | 0.00 | 0.00 | 0.00 | 34 | 1016.5 |
| 20260503205113 | 65 | 320 | 7.0 | 8.0 | 0.00 | 0.00 | 0.00 | 32 | 1016.8 |
| 20260503204610 | 65 | 330 | 6.0 | 8.0 | 0.00 | 0.00 | 0.00 | 33 | 1016.7 |
| 20260503204107 | 64 | 297 | 0.0 | 1.0 | 0.00 | 0.00 | 0.00 | 34 | 1016.7 |
| 20260503203604 | 64 | 286 | 4.0 | 6.0 | 0.00 | 0.00 | 0.00 | 37 | 1017.0 |
| 20260503203102 | 64 | 286 | 5.0 | 7.0 | 0.00 | 0.00 | 0.00 | 34 | 1016.9 |
| 20260503202559 | 64 | 286 | 7.0 | 11.0 | 0.00 | 0.00 | 0.00 | 34 | 1017.1 |
| 20260503202057 | 64 | 9 | 0.0 | 0.0 | 0.00 | 0.00 | 0.00 | 34 | 1017.0 |
| 20260503201555 | 65 | 289 | 3.0 | 5.0 | 0.00 | 0.00 | 0.00 | 37 | 1017.3 |
| 20260503201052 | 64 | 286 | 5.0 | 8.0 | 0.00 | 0.00 | 0.00 | 34 | 1017.4 |
| 20260503200548 | 64 | 292 | 3.0 | 5.0 | 0.00 | 0.00 | 0.00 | 36 | 1017.7 |
| 20260503200044 | 64 | 286 | 4.0 | 6.0 | 0.00 | 0.00 | 0.00 | 36 | 1017.5 |
| 20260503195542 | 64 | 338 | 3.0 | 5.0 | 0.00 | 0.00 | 0.00 | 33 | 1017.8 |
| 20260503195038 | 64 | 299 | 4.0 | 5.0 | 0.00 | 0.00 | 0.00 | 33 | 1018.0 |
| 20260503194536 | 64 | 319 | 2.0 | 3.0 | 0.00 | 0.00 | 0.00 | 32 | 1018.0 |
| 20260503194035 | 63 | 356 | 3.0 | 5.0 | 0.00 | 0.00 | 0.00 | 31 | 1017.8 |
| 20260503193532 | 64 | 286 | 4.0 | 5.0 | 0.00 | 0.00 | 0.00 | 36 | 1018.0 |
| 20260503193027 | 64 | 45 | 1.0 | 2.0 | 0.00 | 0.00 | 0.00 | 36 | 1018.1 |
| 20260503192524 | 63 | 288 | 1.0 | 2.0 | 0.00 | 0.00 | 0.00 | 36 | 1018.2 |
| 20260503192020 | 63 | 12 | 2.0 | 2.0 | 0.00 | 0.00 | 0.00 | 41 | 1018.2 |
| 20260503191517 | 64 | 310 | 3.0 | 5.0 | 0.00 | 0.00 | 0.00 | 38 | 1018.1 |
| 20260503191014 | 63 | 295 | 0.0 | 1.0 | 0.00 | 0.00 | 0.00 | 37 | 1018.5 |
| 20260503190511 | 62 | 52 | 1.0 | 1.0 | 0.00 | 0.00 | 0.00 | 34 | 1018.5 |
| 20260503190008 | 63 | 52 | 3.0 | 5.0 | 0.00 | 0.00 | 0.00 | 39 | 1018.5 |
| 20260503185504 | 63 | 286 | 7.0 | 9.0 | 0.00 | 0.00 | 0.00 | 37 | 1018.6 |
| 20260503185004 | 62 | 27 | 4.0 | 6.0 | 0.00 | 0.00 | 0.00 | 38 | 1018.6 |
| 20260503184500 | 62 | 287 | 3.0 | 5.0 | 0.00 | 0.00 | 0.00 | 42 | 1018.9 |